Location: *
(47.2969°N, 10.2930°E)
Time: 04:06:05
(UTC+00:00)

Cosmos 1570 Rocket - Pass Details

Date: 09 April 2020
Orbit: 764 x 787 km, 74.1° (Epoch: 06 June)

Event Time Altitude Azimuth Distance (km) Brightness Sun altitude
Rises 20:46:09 0° 336° (NNW) 3,291 8.4 -25.0°
Reaches altitude 10° 20:48:34 10° 334° (NNW) 2,356 7.5 -25.3°
Maximum altitude 20:53:54 74° 251° (WSW) 819 4.1 -25.9°
Enters shadow 20:54:24 68° 208° (SSW) 843 4.0 -26.0°
